This is the latest recevied weather packets stored in our database for station/object 9M2GDD-1. If no packets are shown the sender has not sent any weather packets the latest 10 day(s).
| Time | Temp. | Humidity | Pressure | Rain* | Wind** | Luminosity | Snow |
|---|---|---|---|---|---|---|---|
| 1787433800 | 27.78° C | 69% | 1013.2 hPa | - | - | - | - |
| 1787432900 | 28.33° C | 69% | 1013 hPa | - | - | - | - |
| 1787432000 | 27.78° C | 69% | 1013 hPa | - | - | - | - |
| 1787431100 | 28.33° C | 69% | 1013 hPa | - | - | - | - |
| 1787430200 | 28.33° C | 69% | 1012.8 hPa | - | - | - | - |
| 1787429300 | 27.78° C | 70% | 1012.8 hPa | - | - | - | - |
| 1787428400 | 28.33° C | 70% | 1012.9 hPa | - | - | - | - |
| 1787427500 | 28.33° C | 70% | 1012.8 hPa | - | - | - | - |
| 1787426599 | 28.33° C | 70% | 1013.1 hPa | - | - | - | - |
| 1787425699 | 28.89° C | 69% | 1013.2 hPa | - | - | - | - |
| 1787424799 | 28.33° C | 70% | 1013.3 hPa | - | - | - | - |
| 1787423899 | 28.89° C | 68% | 1013.5 hPa | - | - | - | - |
| 1787422103 | 29.44° C | 68% | 1013.9 hPa | - | - | - | - |
| 1787421203 | 29.44° C | 68% | 1014 hPa | - | - | - | - |
| 1787420303 | 29.44° C | 67% | 1014.3 hPa | - | - | - | - |
| 1787419402 | 29.44° C | 68% | 1014.5 hPa | - | - | - | - |
| 1787418502 | 29.44° C | 67% | 1014.6 hPa | - | - | - | - |
| 1787417602 | 29.44° C | 68% | 1014.6 hPa | - | - | - | - |
| 1787416702 | 30° C | 67% | 1014.8 hPa | - | - | - | - |
| 1787415802 | 30° C | 68% | 1014.9 hPa | - | - | - | - |
| 1787414902 | 30° C | 67% | 1015.1 hPa | - | - | - | - |
| 1787414002 | 30° C | 68% | 1015.4 hPa | - | - | - | - |
| 1787413102 | 30° C | 68% | 1015.6 hPa | - | - | - | - |
| 1787412202 | 30.56° C | 68% | 1015.5 hPa | - | - | - | - |
| 1787411302 | 30.56° C | 69% | 1015.5 hPa | - | - | - | - |
* Rain since midnight (hover to see other rain measurements)
** Current wind speed in m/s (hover to see current wind gust speed)